• In Belarus
  • List of Countries
  • For 7 days
  • Water Temperature
  • Satellite Maps
  • Weather Map
  • Weather Widgets
  • user-avatar
    Login

    Hourly Weather Fier

    Today, 23 July, Sunday

    Time Temperature Precipitation Wind Pressure Humidity
    00:00 +28°C° 0 mm 2 mps 760 mmHg 48%
    01:00 +28°C° 0 mm 2 mps 760 mmHg 48%
    02:00 +27°C° 0 mm 2 mps 760 mmHg 47%
    03:00 +27°C° 0 mm 2 mps 760 mmHg 46%
    04:00 +27°C° 0 mm 2 mps 760 mmHg 45%
    05:00 +29°C° 0 mm 2 mps 760 mmHg 41%
    06:00 +31°C° 0 mm 2 mps 760 mmHg 38%
    07:00 +34°C° 0 mm 2 mps 760 mmHg 34%
    08:00 +36°C° 0 mm 2 mps 760 mmHg 31%
    09:00 +37°C° 0 mm 2 mps 760 mmHg 28%
    10:00 +38°C° 0 mm 3 mps 760 mmHg 25%
    11:00 +39°C° 0 mm 3 mps 759 mmHg 25%
    12:00 +40°C° 0 mm 3 mps 759 mmHg 25%
    13:00 +41°C° 0 mm 4 mps 758 mmHg 26%
    14:00 +39°C° 0 mm 3 mps 758 mmHg 28%
    15:00 +39°C° 0 mm 3 mps 758 mmHg 30%
    16:00 +39°C° 0 mm 3 mps 758 mmHg 32%
    17:00 +36°C° 0 mm 2 mps 758 mmHg 39%
    18:00 +34°C° 0 mm 2 mps 758 mmHg 46%
    19:00 +30°C° 0 mm 1 mps 758 mmHg 53%
    20:00 +29°C° 0 mm 1 mps 758 mmHg 56%
    21:00 +28°C° 0 mm 1 mps 759 mmHg 59%
    22:00 +27°C° 0 mm 1 mps 759 mmHg 62%
    23:00 +27°C° 0 mm 1 mps 759 mmHg 62%

    Tomorrow, 24 July, Monday

    Time Temperature Precipitation Wind Pressure Humidity
    00:00 +26°C° 0 mm 1 mps 758 mmHg 61%
    01:00 +26°C° 0 mm 1 mps 758 mmHg 61%
    02:00 +26°C° 0 mm 1 mps 758 mmHg 60%
    03:00 +26°C° 0 mm 1 mps 758 mmHg 59%
    04:00 +26°C° 0 mm 1 mps 758 mmHg 58%
    05:00 +28°C° 0 mm 1 mps 757 mmHg 52%
    06:00 +29°C° 0 mm 1 mps 757 mmHg 47%
    07:00 +31°C° 0 mm 1 mps 757 mmHg 41%
    08:00 +33°C° 0 mm 1 mps 757 mmHg 37%
    09:00 +35°C° 0 mm 1 mps 757 mmHg 32%
    10:00 +38°C° 0 mm 2 mps 756 mmHg 27%
    11:00 +38°C° 0 mm 2 mps 756 mmHg 26%
    12:00 +39°C° 0 mm 3 mps 756 mmHg 24%
    13:00 +40°C° 0 mm 3 mps 755 mmHg 22%
    14:00 +39°C° 0 mm 3 mps 755 mmHg 23%
    15:00 +39°C° 0 mm 3 mps 754 mmHg 24%
    16:00 +39°C° 0 mm 3 mps 754 mmHg 25%
    17:00 +36°C° 0 mm 3 mps 753 mmHg 31%
    18:00 +34°C° 0 mm 3 mps 753 mmHg 36%
    19:00 +31°C° 0 mm 3 mps 753 mmHg 42%
    20:00 +30°C° 0 mm 4 mps 753 mmHg 43%
    21:00 +29°C° 0 mm 5 mps 753 mmHg 44%
    22:00 +28°C° 0 mm 5 mps 753 mmHg 46%
    23:00 +28°C° 0 mm 6 mps 753 mmHg 48%

    Day after tomorrow, 25 July, Tuesday

    Time Temperature Precipitation Wind Pressure Humidity
    00:00 +27°C° 0 mm 6 mps 753 mmHg 49%
    01:00 +27°C° 0 mm 6 mps 753 mmHg 51%
    02:00 +26°C° 0 mm 6 mps 752 mmHg 55%
    03:00 +25°C° 0 mm 5 mps 752 mmHg 59%
    04:00 +25°C° 0 mm 4 mps 752 mmHg 63%
    05:00 +26°C° 0 mm 4 mps 752 mmHg 62%
    06:00 +27°C° 0 mm 4 mps 752 mmHg 61%
    07:00 +29°C° 0 mm 4 mps 752 mmHg 60%
    08:00 +30°C° 0 mm 4 mps 752 mmHg 53%
    09:00 +32°C° 0 mm 4 mps 752 mmHg 47%
    10:00 +33°C° 0 mm 4 mps 752 mmHg 40%
    11:00 +34°C° 0 mm 4 mps 752 mmHg 38%
    12:00 +34°C° 0 mm 5 mps 751 mmHg 35%
    13:00 +35°C° 0 mm 5 mps 751 mmHg 33%
    14:00 +34°C° 0 mm 5 mps 751 mmHg 34%
    15:00 +34°C° 0 mm 5 mps 751 mmHg 36%
    16:00 +33°C° 0 mm 5 mps 751 mmHg 37%
    17:00 +32°C° 0.1 mm 5 mps 751 mmHg 44%
    18:00 +29°C° 0.1 mm 4 mps 751 mmHg 50%
    19:00 +27°C° 0.1 mm 4 mps 752 mmHg 57%
    20:00 +26°C° 0 mm 4 mps 752 mmHg 61%
    21:00 +25°C° 0 mm 4 mps 752 mmHg 64%
    22:00 +25°C° 0 mm 4 mps 752 mmHg 67%
    23:00 +23°C° 0 mm 4 mps 752 mmHg 68%

    26 July, Wednesday

    Time Temperature Precipitation Wind Pressure Humidity
    00:00 +23°C° 0 mm 4 mps 752 mmHg 69%
    01:00 +22°C° 0 mm 4 mps 752 mmHg 70%
    02:00 +22°C° 0.1 mm 4 mps 752 mmHg 71%
    03:00 +22°C° 0.1 mm 3 mps 752 mmHg 71%
    04:00 +21°C° 0.1 mm 3 mps 752 mmHg 71%
    05:00 +24°C° 0 mm 3 mps 752 mmHg 66%
    06:00 +26°C° 0 mm 3 mps 752 mmHg 60%
    07:00 +27°C° 0 mm 4 mps 752 mmHg 54%
    08:00 +29°C° 0.1 mm 4 mps 752 mmHg 49%
    09:00 +30°C° 0.1 mm 4 mps 752 mmHg 44%
    10:00 +33°C° 0.1 mm 4 mps 752 mmHg 39%
    11:00 +33°C° 0 mm 5 mps 752 mmHg 41%
    12:00 +33°C° 0 mm 5 mps 752 mmHg 42%
    13:00 +33°C° 0 mm 5 mps 751 mmHg 44%
    14:00 +32°C° 0.1 mm 5 mps 751 mmHg 46%
    15:00 +32°C° 0.1 mm 5 mps 751 mmHg 48%
    16:00 +30°C° 0.1 mm 5 mps 751 mmHg 50%
    17:00 +29°C° 0.1 mm 4 mps 751 mmHg 57%
    18:00 +27°C° 0.1 mm 4 mps 752 mmHg 63%
    19:00 +26°C° 0.1 mm 3 mps 752 mmHg 70%
    20:00 +25°C° 0.1 mm 3 mps 752 mmHg 73%
    21:00 +24°C° 0.1 mm 3 mps 752 mmHg 77%
    22:00 +22°C° 0.1 mm 3 mps 753 mmHg 81%
    23:00 +22°C° 0.2 mm 3 mps 753 mmHg 82%

    27 July, Thursday

    Time Temperature Precipitation Wind Pressure Humidity
    00:00 +21°C° 0.2 mm 3 mps 753 mmHg 82%
    01:00 +21°C° 0.2 mm 3 mps 753 mmHg 83%
    02:00 +21°C° 0.3 mm 3 mps 753 mmHg 84%
    03:00 +21°C° 0.3 mm 2 mps 752 mmHg 84%
    04:00 +20°C° 0.3 mm 2 mps 752 mmHg 85%
    05:00 +23°C° 0.3 mm 1 mps 753 mmHg 78%
    06:00 +24°C° 0.3 mm 1 mps 753 mmHg 71%
    07:00 +24°C° 0.3 mm 0 mps 753 mmHg 64%
    08:00 +27°C° 0.3 mm 1 mps 753 mmHg 59%
    09:00 +28°C° 0.3 mm 2 mps 753 mmHg 54%
    10:00 +29°C° 0.3 mm 3 mps 753 mmHg 49%
    11:00 +29°C° 0.4 mm 4 mps 753 mmHg 49%
    12:00 +30°C° 0.4 mm 4 mps 753 mmHg 49%
    13:00 +30°C° 0.4 mm 4 mps 753 mmHg 48%
    14:00 +29°C° 0.5 mm 4 mps 753 mmHg 52%
    15:00 +28°C° 0.5 mm 4 mps 753 mmHg 55%
    16:00 +28°C° 0.5 mm 4 mps 753 mmHg 58%
    17:00 +27°C° 0.3 mm 4 mps 754 mmHg 64%
    18:00 +25°C° 0.3 mm 4 mps 754 mmHg 69%
    19:00 +24°C° 0.3 mm 3 mps 755 mmHg 74%
    20:00 +24°C° 0.2 mm 3 mps 755 mmHg 78%
    21:00 +22°C° 0.2 mm 3 mps 755 mmHg 81%
    22:00 +21°C° 0.2 mm 3 mps 756 mmHg 84%
    23:00 +21°C° 0.1 mm 3 mps 756 mmHg 84%

    28 July, Friday

    Time Temperature Precipitation Wind Pressure Humidity
    00:00 +20°C° 0.1 mm 3 mps 756 mmHg 84%
    01:00 +20°C° 0.1 mm 3 mps 756 mmHg 83%
    02:00 +20°C° 0 mm 2 mps 756 mmHg 82%
    03:00 +20°C° 0 mm 2 mps 756 mmHg 80%
    04:00 +20°C° 0 mm 2 mps 757 mmHg 78%
    05:00 +23°C° 0 mm 2 mps 757 mmHg 71%
    06:00 +24°C° 0 mm 2 mps 757 mmHg 64%
    07:00 +26°C° 0 mm 2 mps 757 mmHg 57%
    08:00 +28°C° 0 mm 3 mps 757 mmHg 51%
    09:00 +30°C° 0 mm 3 mps 758 mmHg 44%
    10:00 +33°C° 0 mm 4 mps 758 mmHg 38%
    11:00 +33°C° 0 mm 4 mps 758 mmHg 37%
    12:00 +34°C° 0 mm 5 mps 758 mmHg 35%
    13:00 +34°C° 0 mm 6 mps 758 mmHg 33%
    14:00 +34°C° 0 mm 6 mps 758 mmHg 34%
    15:00 +34°C° 0 mm 6 mps 758 mmHg 35%
    16:00 +33°C° 0 mm 6 mps 758 mmHg 36%
    17:00 +30°C° 0 mm 5 mps 758 mmHg 42%
    18:00 +28°C° 0 mm 4 mps 759 mmHg 49%
    19:00 +26°C° 0 mm 4 mps 759 mmHg 56%
    20:00 +25°C° 0 mm 3 mps 760 mmHg 58%
    21:00 +24°C° 0 mm 3 mps 760 mmHg 61%
    22:00 +24°C° 0 mm 2 mps 760 mmHg 64%
    23:00 +24°C° 0 mm 2 mps 761 mmHg 63%
    Show more